[[[{"header":{"parameterUnit":"kt","parameterCategory":2,"dx":1,"dy":1,"la1":30.253999710083008,"la2":30.299108505249023,"lo1":-89.0895004272461,"lo2":-89.04439544677734,"nx":28,"ny":28,"refTime":"2022-10-19T21:00:00:Z","depth":"0","parameterNumber":2,"parameterNumberName":"U-component_of_CURRENTS"},"data":[0.265,0.2688,0.2736,0.2867,0.2961,0.3047,0.3117,0.3262,0.3514,0.3913,0.4307,0.469,0.5362,0.5957,0.6157,0.6101,0.5607,0.5448,0.5271,0.5753,0.5772,0.579,0.5593,0.5601,0.56,0.4395,0.4386,0.4379,0.267,0.2699,0.2832,0.297,0.3086,0.3172,0.3369,0.3457,0.3647,0.403,0.4327,0.5002,0.5493,0.6032,0.6574,0.6478,0.6217,0.6281,0.5806,0.5665,0.6386,0.6214,0.6354,0.6354,0.6354,0.6354,0.6354,0.6354,0.2697,0.2741,0.2864,0.2995,0.3135,0.326,0.3354,0.3563,0.3795,0.4125,0.4447,0.4844,0.5489,0.6276,0.6493,0.6762,0.6558,0.6624,0.6519,0.626,0.5928,0.6539,0.6961,0.6962,0.6963,0.6963,0.6964,0,0.2683,0.2748,0.2867,0.3011,0.3136,0.3294,0.3477,0.3609,0.3917,0.4156,0.4515,0.4787,0.548,0.5912,0.6458,0.6695,0.6449,0.6815,0.6617,0.6172,0.574,0.5547,0.617,0.6644,0.6643,0.6643,0.6642,0.6642,0.2653,0.2726,0.2938,0.3016,0.3102,0.3278,0.3408,0.3661,0.384,0.4279,0.4422,0.4897,0.5203,0.5903,0.626,0.6689,0.641,0.6786,0.6577,0.6277,0.6146,0.5827,0.5634,0.6633,0.6635,0.6635,0.6636,0,0.2642,0.2743,0.2897,0.3104,0.3155,0.3273,0.3513,0.3685,0.3926,0.4212,0.4319,0.4719,0.5147,0.5451,0.5931,0.604,0.625,0.6492,0.6275,0.6287,0.6189,0.6039,0.6165,0.5981,0.6798,0.6801,0.6804,0,0.2681,0.2764,0.294,0.3012,0.316,0.33,0.3499,0.3646,0.3924,0.4143,0.436,0.461,0.4925,0.5252,0.5435,0.5833,0.593,0.5958,0.6003,0.5864,0.5843,0.5741,0.5584,0.607,0.6066,0.6063,0.606,0,0.2709,0.2834,0.2945,0.3001,0.3214,0.3285,0.3394,0.3637,0.3782,0.4091,0.4251,0.459,0.4783,0.5063,0.5292,0.5181,0.5772,0.5662,0.5832,0.5829,0.5851,0.5834,0.6031,0.6055,0.6054,0.6053,0.6052,0,0.2754,0.2858,0.2943,0.316,0.3197,0.3243,0.3493,0.3568,0.3835,0.3949,0.4186,0.4309,0.4603,0.4533,0.4996,0.4813,0.4983,0.5103,0.5124,0.5138,0.5025,0.5326,0.5618,0.541,0.5263,0.5256,0.525,0,0.282,0.2905,0.2994,0.3075,0.3154,0.3265,0.3349,0.3477,0.3603,0.3778,0.3953,0.4123,0.4094,0.4195,0.4379,0.455,0.4762,0.4489,0.4919,0.4933,0.4931,0.5203,0.5103,0.5504,0.5162,0.5171,0.5178,0,0.2886,0.3056,0.3054,0.3146,0.3242,0.3272,0.3329,0.3459,0.3588,0.3622,0.3814,0.3922,0.4023,0.4083,0.4129,0.4304,0.4612,0.4272,0.4282,0.4474,0.5092,0.5078,0.5136,0.4631,0.4641,0.4649,0.5108,0,0.3071,0.3129,0.3121,0.3225,0.3255,0.3259,0.3342,0.3365,0.3422,0.3504,0.3651,0.3699,0.3841,0.385,0.3843,0.4099,0.4087,0.4061,0.407,0.4196,0.4365,0.4421,0.3748,0.3746,0.3745,0.3744,0,0,0.3136,0.3206,0.3283,0.3302,0.3346,0.34,0.3408,0.343,0.3429,0.3498,0.3454,0.3619,0.3626,0.3811,0.3828,0.3787,0.3892,0.3794,0.4078,0.4115,0.4149,0.4321,0.4375,0.3742,0.3742,0.3741,0.3741,0,0.322,0.3299,0.3309,0.3338,0.338,0.3421,0.3418,0.3438,0.3461,0.3456,0.3513,0.3591,0.3556,0.3665,0.3709,0.3753,0.384,0.3727,0.3831,0.4059,0.4097,0.4131,0.4306,0.4356,0.3738,0.3738,0.3738,0,0.3319,0.3392,0.3408,0.3462,0.3476,0.3488,0.3521,0.3501,0.3525,0.3524,0.3522,0.3547,0.3585,0.3613,0.3619,0.3606,0.3811,0.3649,0.3654,0.3706,0.3943,0.3984,0.402,0.3572,0.3572,0.3572,0,0,0.3379,0.3427,0.3485,0.3479,0.3492,0.3524,0.352,0.3536,0.3535,0.353,0.3527,0.3545,0.3585,0.3584,0.3582,0.358,0.3693,0.3631,0.3639,0.3645,0.37,0.3936,0.3973,0.357,0.357,0.357,0,0,0.3381,0.3491,0.3537,0.3546,0.3551,0.3569,0.3546,0.3575,0.3556,0.3563,0.3579,0.3575,0.3582,0.3564,0.3547,0.362,0.3585,0.3586,0.3643,0.3652,0.366,0.3733,0.3576,0,0,0,0,0,0.35,0.3487,0.353,0.3541,0.3585,0.3563,0.3562,0.3585,0.3621,0.3588,0.3595,0.3608,0.3576,0.356,0.3552,0.3619,0.3555,0.3558,0.3561,0.3632,0.3642,0.3651,0,0,0,0,0,0,0.3505,0.3519,0.3529,0.3557,0.3567,0.3565,0.3619,0.3623,0.3623,0.3626,0.361,0.3608,0.3611,0.3564,0.3557,0.3623,0.3579,0.3556,0.3559,0.3561,0.3636,0.3644,0.3651,0,0,0,0,0,0.3509,0.352,0.3596,0.3555,0.3564,0.3593,0.3619,0.3623,0.3615,0.362,0.3619,0.3633,0.3611,0.3604,0.356,0.3628,0.3584,0.3581,0.3558,0.356,0.3561,0.364,0,0,0,0,0,0,0.3511,0.3504,0.3597,0.3599,0.3568,0.359,0.3598,0.3623,0.3609,0.361,0.3644,0.3646,0.361,0.3605,0.36,0.3632,0.3588,0.3585,0.3583,0.3559,0.3561,0.3562,0,0,0,0,0,0,0.3499,0.3506,0.3597,0.3613,0.3616,0.3588,0.3596,0.3563,0.3607,0.3631,0.3634,0.3645,0.3612,0.3605,0.3601,0.3549,0.3591,0.3588,0.3586,0.3585,0.356,0.3561,0,0,0,0,0,0,0.3501,0.3507,0.3612,0.3614,0.3617,0.3635,0.3556,0.3594,0.3645,0.3629,0.3648,0.365,0.3611,0.3608,0.3602,0.3552,0.355,0.3591,0.3589,0.3588,0.3587,0,0,0,0,0,0,0,0.3503,0.3469,0.3593,0.3616,0.3619,0.3617,0.3617,0.3617,0.3645,0.3646,0.3648,0.3649,0.3606,0.3603,0.36,0.3554,0,0,0.3591,0.359,0,0,0,0,0,0,0,0,0.3465,0.3468,0.3593,0.3594,0.3595,0.3617,0.3617,0.3617,0.3645,0.3646,0.3648,0.3649,0.3606,0.3603,0.3601,0,0,0,0,0,0,0,0,0,0,0,0,0,0,0,0.3594,0.3594,0,0.3617,0.3617,0.3617,0.3645,0.3646,0.3647,0.3648,0.3605,0.3603,0.3601,0,0,0,0,0,0,0,0,0,0,0,0,0,0,0,0,0,0,0,0,0,0,0,0,0,0,0,0,0,0,0,0,0,0,0,0,0,0,0,0,0,0,0,0,0,0,0,0,0,0,0,0,0,0,0,0,0,0,0,0,0,0,0,0,0,0,0,0,0]}],[{"header":{"parameterUnit":"kt","parameterCategory":2,"dx":1,"dy":1,"la1":30.253999710083008,"la2":30.299108505249023,"lo1":-89.0895004272461,"lo2":-89.04439544677734,"nx":28,"ny":28,"refTime":"2022-10-19T21:00:00:Z","depth":"0","parameterNumber":3,"parameterNumberName":"V-component_of_CURRENTS"},"data":[0.1098,0.1158,0.1181,0.1306,0.1384,0.1491,0.1553,0.1679,0.1838,0.2056,0.2194,0.2275,0.1837,-0.0116,-0.1562,-0.1918,-0.2329,-0.2443,-0.2645,-0.2151,-0.2089,-0.2029,-0.2113,-0.2636,-0.2638,-0.3277,-0.3285,-0.329,0.1079,0.11,0.1253,0.1322,0.1447,0.1484,0.1641,0.1705,0.1788,0.2002,0.2038,0.1917,0.1233,0.0571,-0.046,-0.113,-0.1316,-0.1493,-0.1622,-0.1656,-0.0895,-0.0938,-0.1219,-0.1219,-0.1219,-0.1218,-0.1218,-0.1218,0.0989,0.1072,0.1107,0.122,0.1346,0.1454,0.1549,0.165,0.1789,0.188,0.1903,0.1922,0.1471,0.08,0.0338,-0.0467,-0.0412,-0.0702,-0.0869,-0.0931,-0.1081,-0.0327,-0.0382,-0.0382,-0.0382,-0.0382,-0.0381,0,0.0791,0.0805,0.0926,0.102,0.1136,0.129,0.1393,0.1515,0.1578,0.1687,0.1749,0.1738,0.1418,0.1085,0.0575,0.0289,-0.0221,-0.0043,-0.0385,-0.0652,-0.0858,-0.1066,-0.022,-0.0073,-0.0071,-0.007,-0.0069,-0.0068,0.0442,0.0581,0.07,0.0777,0.0808,0.0992,0.1101,0.117,0.1296,0.1406,0.1494,0.1442,0.1413,0.1058,0.0674,0.0312,0.0034,0.0017,-0.0044,-0.0459,-0.0758,-0.0879,-0.0976,-0.0048,-0.0051,-0.0053,-0.0054,0,0.0234,0.0209,0.0453,0.0548,0.0577,0.0767,0.0877,0.106,0.1106,0.1289,0.1318,0.1312,0.1185,0.0969,0.078,0.053,0.0142,0.0211,0.0151,0.003,-0.0527,-0.0717,-0.0827,-0.0944,-0.0021,-0.0024,-0.0026,0,-0.0148,0.0057,0.0015,0.0145,0.0423,0.0417,0.0713,0.0776,0.0895,0.1058,0.0994,0.1104,0.0926,0.0846,0.0611,0.0371,0.0498,0.0135,0.0015,0.0004,-0.0022,-0.0368,-0.0574,0.0322,0.0323,0.0323,0.0324,0,-0.0483,-0.0364,-0.0135,-0.0086,0.0021,0.0172,0.0243,0.0398,0.0541,0.0677,0.0716,0.0848,0.0831,0.0745,0.0462,0.0391,0.0382,0.0241,-0.0007,-0.0029,-0.0077,-0.0113,-0.0152,0.0325,0.0325,0.0325,0.0325,0,-0.0828,-0.0785,-0.054,-0.0372,-0.0326,-0.0206,0.008,0.02,0.0335,0.0348,0.0456,0.0379,0.0541,0.0298,0.0328,0.0256,0.0102,-0.0013,-0.0021,-0.0214,-0.0505,-0.0622,-0.0309,-0.0653,-0.029,-0.0294,-0.0296,0,-0.1067,-0.0947,-0.1026,-0.0772,-0.0668,-0.072,-0.0529,-0.0423,-0.0385,-0.0257,-0.0204,-0.007,-0.0218,-0.019,-0.0108,-0.0226,-0.0143,-0.0216,-0.0403,-0.0407,-0.0631,-0.0298,-0.0303,-0.0354,-0.0336,-0.0332,-0.0329,0,-0.1275,-0.137,-0.1339,-0.1252,-0.1278,-0.124,-0.1056,-0.0911,-0.0758,-0.0795,-0.0575,-0.0392,-0.0505,-0.0407,-0.0444,-0.0363,-0.0235,-0.057,-0.0575,-0.0675,-0.0192,-0.0346,-0.0336,-0.0319,-0.0311,-0.0305,-0.036,0,-0.1479,-0.1472,-0.1472,-0.1481,-0.1481,-0.1439,-0.1463,-0.1426,-0.1452,-0.1453,-0.1224,-0.1251,-0.1106,-0.1044,-0.1088,-0.076,-0.0911,-0.1002,-0.1157,-0.0862,-0.0935,-0.0909,-0.1294,-0.1299,-0.1304,-0.1307,0,0,-0.1586,-0.1614,-0.1819,-0.1806,-0.1782,-0.1978,-0.187,-0.1885,-0.1957,-0.1867,-0.2004,-0.1779,-0.177,-0.1411,-0.1299,-0.1327,-0.1384,-0.1323,-0.0995,-0.096,-0.0928,-0.0982,-0.0952,-0.1315,-0.1317,-0.1318,-0.132,0,-0.1666,-0.1807,-0.1813,-0.187,-0.1998,-0.2058,-0.2056,-0.2198,-0.2182,-0.2107,-0.2142,-0.2042,-0.1959,-0.1824,-0.1739,-0.1425,-0.1563,-0.1384,-0.1098,-0.1037,-0.0996,-0.0961,-0.1005,-0.0975,-0.133,-0.133,-0.1329,0,-0.1754,-0.1879,-0.1916,-0.2072,-0.2172,-0.215,-0.2345,-0.2412,-0.2314,-0.2503,-0.2381,-0.2403,-0.2319,-0.2128,-0.2044,-0.211,-0.1748,-0.1842,-0.1816,-0.1758,-0.1704,-0.1654,-0.161,-0.2198,-0.2201,-0.2204,0,0,-0.18,-0.1873,-0.2042,-0.2099,-0.2148,-0.2308,-0.2374,-0.2445,-0.2506,-0.2525,-0.2555,-0.2501,-0.2387,-0.2327,-0.2278,-0.2116,-0.2164,-0.1948,-0.1907,-0.1873,-0.1798,-0.1734,-0.1684,-0.2214,-0.2215,-0.2215,0,0,-0.182,-0.2019,-0.2081,-0.2165,-0.2263,-0.2449,-0.2489,-0.2569,-0.2593,-0.2583,-0.2648,-0.2646,-0.2487,-0.2495,-0.2636,-0.2255,-0.2419,-0.2394,-0.2258,-0.2208,-0.2168,-0.2096,-0.2734,0,0,0,0,0,-0.1966,-0.1993,-0.2047,-0.2086,-0.2315,-0.2421,-0.2453,-0.259,-0.2644,-0.264,-0.265,-0.2707,-0.2533,-0.2663,-0.2662,-0.246,-0.2355,-0.233,-0.2306,-0.2096,-0.2042,-0.1996,0,0,0,0,0,0,-0.1983,-0.2025,-0.2049,-0.2233,-0.2289,-0.2422,-0.253,-0.2568,-0.2645,-0.2657,-0.2707,-0.2709,-0.2748,-0.2668,-0.2666,-0.247,-0.2735,-0.2345,-0.2324,-0.2305,-0.2077,-0.2033,-0.1995,0,0,0,0,0,-0.1996,-0.2031,-0.2353,-0.2236,-0.2283,-0.2476,-0.2529,-0.2561,-0.2612,-0.269,-0.27,-0.2708,-0.2747,-0.2745,-0.2667,-0.2467,-0.2737,-0.2736,-0.2331,-0.2315,-0.23,-0.2055,0,0,0,0,0,0,-0.2007,-0.2057,-0.2367,-0.2389,-0.223,-0.247,-0.2507,-0.2554,-0.2638,-0.2656,-0.269,-0.2697,-0.2747,-0.2745,-0.2744,-0.2457,-0.2739,-0.2738,-0.2737,-0.2319,-0.2306,-0.2294,0,0,0,0,0,0,-0.2041,-0.2073,-0.2378,-0.2362,-0.2383,-0.2463,-0.2496,-0.2483,-0.2629,-0.2628,-0.2642,-0.2691,-0.2686,-0.2745,-0.2744,-0.2726,-0.274,-0.2739,-0.2738,-0.2738,-0.2308,-0.2298,0,0,0,0,0,0,-0.2058,-0.2086,-0.2357,-0.2373,-0.2391,-0.264,-0.2446,-0.2628,-0.276,-0.2616,-0.2761,-0.2762,-0.268,-0.2684,-0.2744,-0.2727,-0.2726,-0.274,-0.2739,-0.2739,-0.2738,0,0,0,0,0,0,0,-0.2072,-0.184,-0.2246,-0.2381,-0.2398,-0.2592,-0.2597,-0.2602,-0.276,-0.2761,-0.2761,-0.2762,-0.2745,-0.2744,-0.2743,-0.2727,0,0,-0.274,-0.2739,0,0,0,0,0,0,0,0,-0.1832,-0.1838,-0.2247,-0.2252,-0.2257,-0.2593,-0.2597,-0.2601,-0.276,-0.2761,-0.2761,-0.2761,-0.2745,-0.2744,-0.2743,0,0,0,0,0,0,0,0,0,0,0,0,0,0,0,-0.2247,-0.2252,0,-0.2594,-0.2597,-0.26,-0.276,-0.2761,-0.2761,-0.2761,-0.2745,-0.2744,-0.2743,0,0,0,0,0,0,0,0,0,0,0,0,0,0,0,0,0,0,0,0,0,0,0,0,0,0,0,0,0,0,0,0,0,0,0,0,0,0,0,0,0,0,0,0,0,0,0,0,0,0,0,0,0,0,0,0,0,0,0,0,0,0,0,0,0,0,0,0,0]}]],[[{"header":{"parameterUnit":"kt","parameterCategory":2,"dx":1,"dy":1,"la1":30.253999710083008,"la2":30.299108505249023,"lo1":-89.0895004272461,"lo2":-89.04439544677734,"nx":28,"ny":28,"refTime":"2022-10-19T21:00:00:Z","depth":"2","parameterNumber":2,"parameterNumberName":"U-component_of_CURRENTS"},"data":[0.2138,0.2135,0.2159,0.2147,0.2231,0.2253,0.2294,0.2282,0.2379,0.235,0.2407,0.2619,0.2877,0.2504,0.2514,0.2476,0.273,0.2406,0.3416,0.3293,0.3351,0.3555,0.3239,0,0,0,0,0,0.2176,0.2195,0.2306,0.2395,0.2443,0.26,0.2747,0.2733,0.2742,0.2997,0.3081,0.2879,0.2884,0.3147,0.3062,0.3091,0.301,0.3103,0.2952,0.3021,0.3083,0.283,0.2404,0.2401,0.2398,0.2396,0,0,0.2216,0.2267,0.2377,0.2499,0.263,0.2737,0.2783,0.2946,0.3078,0.328,0.3552,0.3644,0.3744,0.3758,0.3782,0.3859,0.4105,0.3987,0.4007,0.4035,0.3836,0.3669,0.3673,0.3678,0.3683,0.3687,0.3691,0,0.2207,0.2283,0.2402,0.2543,0.2686,0.283,0.3018,0.3111,0.3411,0.3581,0.3822,0.3968,0.4272,0.4197,0.4396,0.4419,0.4524,0.444,0.5089,0.3986,0.3818,0.3764,0.3764,0.3886,0.3893,0.3898,0.3902,0.3905,0.2142,0.2246,0.2479,0.2555,0.2663,0.2859,0.2979,0.3211,0.336,0.375,0.388,0.4229,0.438,0.4727,0.474,0.488,0.5056,0.46,0.4363,0.4767,0.472,0.4686,0.4654,0.398,0.3971,0.3963,0.3956,0,0.2094,0.2202,0.24,0.2637,0.27,0.2857,0.3069,0.323,0.3444,0.37,0.3802,0.4099,0.4377,0.4569,0.487,0.4823,0.4992,0.5009,0.4497,0.4419,0.4687,0.4651,0.5004,0.5001,0.4999,0.4997,0.4996,0,0.2059,0.219,0.2368,0.2467,0.2675,0.2814,0.3043,0.3202,0.3438,0.3623,0.3798,0.399,0.4212,0.4433,0.4522,0.4679,0.4827,0.4667,0.4654,0.4249,0.4195,0.4565,0.4524,0.4889,0.4886,0.4884,0.4883,0,0.2023,0.2153,0.2326,0.2393,0.2609,0.2751,0.2878,0.311,0.3257,0.3546,0.3661,0.3937,0.4093,0.4267,0.4399,0.4316,0.4722,0.461,0.4565,0.4552,0.4217,0.416,0.488,0.488,0.4879,0.4878,0.4877,0,0.1993,0.2064,0.2205,0.2455,0.2486,0.2586,0.2891,0.3014,0.3265,0.3364,0.3558,0.3647,0.3923,0.3828,0.4167,0.4044,0.4137,0.4209,0.4221,0.4056,0.3906,0.3704,0.3902,0.4257,0.4251,0.4246,0.4242,0,0.2052,0.21,0.2137,0.2284,0.2354,0.2464,0.2618,0.2768,0.2899,0.3086,0.3252,0.3443,0.3408,0.3514,0.3659,0.3796,0.3954,0.3763,0.3982,0.3989,0.3799,0.4071,0.3632,0.3841,0.4177,0.4184,0.4189,0,0.2075,0.2141,0.2143,0.2251,0.2292,0.2304,0.2454,0.2605,0.2752,0.2823,0.3041,0.3249,0.3275,0.3374,0.3443,0.3584,0.3837,0.3539,0.3543,0.3615,0.4158,0.3998,0.4025,0.3835,0.3843,0.385,0.4138,0,0.2249,0.2263,0.221,0.2234,0.2241,0.2232,0.2306,0.2373,0.2449,0.2511,0.2744,0.2819,0.2992,0.3061,0.3084,0.3374,0.3342,0.3294,0.3208,0.3406,0.35,0.3541,0.3016,0.3013,0.3011,0.3009,0,0,0.2352,0.2315,0.2245,0.2212,0.2241,0.2213,0.2233,0.2261,0.2267,0.2361,0.2328,0.259,0.2641,0.2915,0.3007,0.2993,0.3055,0.299,0.3295,0.3327,0.3356,0.3457,0.3499,0.3004,0.3003,0.3003,0.3002,0,0.2394,0.2346,0.2284,0.2267,0.2203,0.22,0.2196,0.2137,0.2193,0.2261,0.2338,0.2461,0.254,0.2682,0.2762,0.2937,0.2946,0.298,0.3118,0.3269,0.3303,0.3334,0.344,0.3479,0.2996,0.2996,0.2997,0,0.2494,0.2437,0.2403,0.2303,0.2243,0.2233,0.2186,0.2106,0.2181,0.2144,0.2245,0.2298,0.2395,0.2531,0.2591,0.2545,0.2834,0.2706,0.2721,0.2747,0.2898,0.2939,0.2974,0.2508,0.2507,0.2505,0,0,0.2529,0.2469,0.2397,0.2304,0.227,0.2209,0.2156,0.2148,0.213,0.2132,0.2165,0.2245,0.2358,0.2401,0.2459,0.2533,0.2574,0.2646,0.2669,0.2688,0.2724,0.2879,0.2919,0.2499,0.2499,0.2498,0,0,0.2533,0.245,0.247,0.2347,0.2297,0.2182,0.2113,0.2116,0.2121,0.2146,0.2174,0.2187,0.2314,0.2308,0.2223,0.2481,0.239,0.2404,0.2477,0.2505,0.2527,0.256,0.2214,0,0,0,0,0,0.2556,0.2462,0.2482,0.2453,0.2292,0.2181,0.2158,0.2115,0.2135,0.2111,0.2167,0.2162,0.2314,0.2236,0.2234,0.2366,0.2417,0.2432,0.2445,0.2557,0.2587,0.2612,0,0,0,0,0,0,0.2544,0.2512,0.2482,0.2366,0.2328,0.2183,0.2199,0.2185,0.2139,0.2143,0.215,0.216,0.2174,0.2235,0.2234,0.2362,0.2215,0.2423,0.2435,0.2446,0.2567,0.2592,0.2613,0,0,0,0,0,0.2534,0.2508,0.2272,0.2366,0.2333,0.225,0.2204,0.2192,0.2167,0.2157,0.2164,0.2144,0.217,0.2175,0.2234,0.2366,0.2215,0.2215,0.2431,0.244,0.2449,0.2579,0,0,0,0,0,0,0.2527,0.2493,0.2263,0.225,0.2408,0.2259,0.2239,0.2199,0.2187,0.2186,0.2153,0.2158,0.2167,0.2171,0.2175,0.2372,0.2216,0.2215,0.2215,0.2438,0.2446,0.2452,0,0,0,0,0,0,0.2506,0.2483,0.2256,0.2313,0.2305,0.2268,0.225,0.2235,0.2194,0.2187,0.2187,0.2157,0.2219,0.2168,0.2171,0.2143,0.2216,0.2216,0.2215,0.2215,0.2444,0.245,0,0,0,0,0,0,0.2494,0.2474,0.2316,0.231,0.2304,0.2151,0.226,0.2137,0.2121,0.2194,0.2131,0.2135,0.2219,0.2218,0.2168,0.2138,0.2142,0.2216,0.2216,0.2216,0.2215,0,0,0,0,0,0,0,0.2485,0.2643,0.234,0.2309,0.2303,0.2123,0.212,0.2117,0.2122,0.2126,0.213,0.2133,0.2217,0.2217,0.2217,0.2134,0,0,0.2216,0.2216,0,0,0,0,0,0,0,0,0.265,0.2645,0.234,0.2337,0.2334,0.2123,0.212,0.2117,0.2122,0.2125,0.2129,0.2132,0.2217,0.2217,0.2217,0,0,0,0,0,0,0,0,0,0,0,0,0,0,0,0.2339,0.2337,0,0.2122,0.212,0.2118,0.2123,0.2125,0.2128,0.2131,0.2217,0.2217,0.2217,0,0,0,0,0,0,0,0,0,0,0,0,0,0,0,0,0,0,0,0,0,0,0,0,0,0,0,0,0,0,0,0,0,0,0,0,0,0,0,0,0,0,0,0,0,0,0,0,0,0,0,0,0,0,0,0,0,0,0,0,0,0,0,0,0,0,0,0,0]}],[{"header":{"parameterUnit":"kt","parameterCategory":2,"dx":1,"dy":1,"la1":30.253999710083008,"la2":30.299108505249023,"lo1":-89.0895004272461,"lo2":-89.04439544677734,"nx":28,"ny":28,"refTime":"2022-10-19T21:00:00:Z","depth":"2","parameterNumber":3,"parameterNumberName":"V-component_of_CURRENTS"},"data":[0.0978,0.1082,0.1141,0.1304,0.1363,0.1506,0.1585,0.1686,0.1712,0.1706,0.1624,0.1344,0.0732,0.0282,-0.0262,-0.0559,-0.0646,-0.0604,-0.0656,-0.053,-0.0528,-0.0945,-0.0847,0,0,0,0,0,0.0939,0.0981,0.1059,0.1142,0.1225,0.1217,0.1308,0.1392,0.152,0.1498,0.1496,0.1064,0.06,0.0123,-0.0489,-0.0909,-0.0926,-0.1004,-0.095,-0.0954,-0.0958,-0.0895,-0.0917,-0.0917,-0.0918,-0.0918,0,0,0.0836,0.089,0.091,0.0996,0.1033,0.1101,0.1186,0.12,0.1292,0.1349,0.1231,0.1149,0.0664,0.0004,-0.0425,-0.0838,-0.0875,-0.1041,-0.1041,-0.1042,-0.0985,-0.0943,-0.1028,-0.1029,-0.103,-0.1031,-0.1031,0,0.074,0.075,0.0765,0.0832,0.0868,0.0918,0.0945,0.1004,0.0982,0.1034,0.1048,0.0988,0.056,0.0169,-0.0367,-0.0639,-0.0905,-0.0979,-0.1023,-0.0933,-0.0889,-0.0963,-0.0963,-0.0975,-0.0975,-0.0976,-0.0976,-0.0976,0.0626,0.0646,0.0649,0.0675,0.0653,0.0708,0.0744,0.0719,0.0749,0.0747,0.0777,0.0632,0.0531,0.0051,-0.0365,-0.0774,-0.0848,-0.098,-0.1019,-0.1033,-0.1111,-0.1106,-0.1102,-0.0983,-0.0982,-0.0982,-0.0981,0,0.0583,0.05,0.052,0.0486,0.0488,0.0554,0.0548,0.0604,0.0586,0.0635,0.064,0.05,0.029,-0.0007,-0.0351,-0.0587,-0.0861,-0.0964,-0.0851,-0.0916,-0.11,-0.1096,-0.1144,-0.1145,-0.1145,-0.1146,-0.1146,0,0.045,0.0448,0.0354,0.035,0.0434,0.0327,0.0413,0.0402,0.0393,0.0438,0.0304,0.0308,0.0016,-0.0151,-0.0412,-0.0689,-0.0686,-0.0926,-0.1009,-0.094,-0.0937,-0.1031,-0.1037,-0.0963,-0.0962,-0.0961,-0.096,0,0.0412,0.0262,0.0268,0.0229,0.0141,0.0179,0.0162,0.014,0.0165,0.014,0.0139,0.0049,-0.0004,-0.0212,-0.048,-0.0517,-0.0733,-0.0834,-0.0987,-0.0992,-0.0999,-0.1004,-0.0958,-0.0958,-0.0958,-0.0958,-0.0957,0,0.0263,0.019,0.0127,0.0096,0.0062,0.0026,0.0074,0.003,0.0,-0.0046,-0.008,-0.0183,-0.0204,-0.0346,-0.0532,-0.0512,-0.068,-0.0815,-0.0826,-0.088,-0.1015,-0.1051,-0.0974,-0.1006,-0.1005,-0.1005,-0.1004,0,0.0341,0.0184,0.0055,-0.0018,-0.0082,-0.0184,-0.0177,-0.0246,-0.0317,-0.0338,-0.04,-0.043,-0.0538,-0.0539,-0.0588,-0.0741,-0.0774,-0.0731,-0.1001,-0.1008,-0.1013,-0.0935,-0.0861,-0.0969,-0.0998,-0.0999,-0.0999,0,0.0371,0.0121,0.0094,0.006,-0.0169,-0.026,-0.0302,-0.0379,-0.0347,-0.0541,-0.0502,-0.0583,-0.0645,-0.0662,-0.072,-0.0754,-0.0775,-0.087,-0.0877,-0.0918,-0.0926,-0.093,-0.0935,-0.0863,-0.0863,-0.0862,-0.0995,0,0.0324,0.0223,0.0141,-0.0057,-0.0173,-0.0301,-0.0448,-0.0527,-0.0613,-0.0699,-0.0743,-0.0877,-0.0916,-0.0935,-0.0982,-0.0926,-0.0998,-0.1071,-0.1112,-0.1036,-0.1109,-0.1112,-0.1123,-0.1126,-0.1128,-0.113,0,0,0.0444,0.029,0.0101,-0.0042,-0.0122,-0.0333,-0.0427,-0.054,-0.0798,-0.08,-0.0903,-0.1027,-0.1119,-0.1065,-0.1039,-0.112,-0.1185,-0.1087,-0.1073,-0.1066,-0.106,-0.1124,-0.1124,-0.1135,-0.1136,-0.1137,-0.1137,0,0.0401,0.0286,0.0172,0.0023,-0.0232,-0.0346,-0.0401,-0.0661,-0.0739,-0.0881,-0.095,-0.1012,-0.1175,-0.1176,-0.1192,-0.116,-0.1251,-0.1179,-0.1028,-0.1093,-0.1082,-0.1074,-0.1134,-0.1132,-0.1144,-0.1143,-0.1143,0,0.0426,0.0276,0.0217,-0.0037,-0.0203,-0.0334,-0.0458,-0.066,-0.0721,-0.0882,-0.1006,-0.1101,-0.1179,-0.1233,-0.1272,-0.1287,-0.1307,-0.1308,-0.1296,-0.1263,-0.1335,-0.1322,-0.131,-0.1457,-0.1458,-0.1458,0,0,0.0396,0.0285,0.0051,-0.0058,-0.0155,-0.0378,-0.0498,-0.0627,-0.0801,-0.0883,-0.1011,-0.1106,-0.1165,-0.1216,-0.1319,-0.1372,-0.1431,-0.134,-0.1325,-0.1313,-0.1273,-0.134,-0.1328,-0.146,-0.146,-0.146,0,0,0.0374,0.0139,0.0079,-0.0051,-0.0253,-0.0505,-0.0613,-0.0715,-0.0886,-0.0899,-0.1024,-0.1065,-0.1161,-0.1231,-0.1242,-0.1281,-0.1348,-0.1351,-0.1218,-0.1202,-0.1188,-0.1113,-0.1301,0,0,0,0,0,0.0239,0.0178,0.0128,0.0079,-0.0222,-0.046,-0.051,-0.0699,-0.0729,-0.0823,-0.0937,-0.0989,-0.1242,-0.1256,-0.1292,-0.1236,-0.1482,-0.1478,-0.1474,-0.1321,-0.1302,-0.1286,0,0,0,0,0,0,0.0219,0.0166,0.0127,-0.0109,-0.0181,-0.0456,-0.051,-0.0564,-0.0726,-0.0748,-0.0963,-0.0993,-0.108,-0.1244,-0.1275,-0.1218,-0.129,-0.148,-0.1477,-0.1474,-0.1314,-0.1299,-0.1286,0,0,0,0,0,0.0202,0.0159,-0.0262,-0.0113,-0.0175,-0.0439,-0.0509,-0.0556,-0.0698,-0.0865,-0.0905,-0.0839,-0.1076,-0.1113,-0.1263,-0.12,-0.127,-0.1281,-0.1478,-0.1475,-0.1473,-0.1307,0,0,0,0,0,0,0.0189,0.0106,-0.0281,-0.031,-0.0109,-0.0433,-0.0484,-0.0547,-0.0809,-0.0851,-0.0739,-0.0751,-0.1074,-0.1103,-0.113,-0.1185,-0.1253,-0.1264,-0.1271,-0.1476,-0.1474,-0.1472,0,0,0,0,0,0,0.0126,0.0084,-0.0296,-0.028,-0.0309,-0.0425,-0.047,-0.0581,-0.0806,-0.0667,-0.0687,-0.0741,-0.1008,-0.1096,-0.1117,-0.1287,-0.124,-0.1251,-0.1258,-0.1263,-0.1474,-0.1473,0,0,0,0,0,0,0.0104,0.0067,-0.0273,-0.0295,-0.0321,-0.0658,-0.0526,-0.0807,-0.0847,-0.0649,-0.085,-0.0851,-0.0996,-0.1023,-0.1108,-0.1267,-0.1282,-0.124,-0.1248,-0.1253,-0.1257,0,0,0,0,0,0,0,0.0085,0.0395,-0.0112,-0.0308,-0.0331,-0.0577,-0.0585,-0.0592,-0.0847,-0.0848,-0.085,-0.0851,-0.1178,-0.119,-0.1202,-0.1252,0,0,-0.1239,-0.1245,0,0,0,0,0,0,0,0,0.0404,0.0397,-0.0113,-0.0119,-0.0125,-0.0578,-0.0584,-0.0591,-0.0847,-0.0848,-0.0849,-0.085,-0.1182,-0.1191,-0.1201,0,0,0,0,0,0,0,0,0,0,0,0,0,0,0,-0.0113,-0.0118,0,-0.0579,-0.0584,-0.0589,-0.0847,-0.0848,-0.0849,-0.085,-0.1184,-0.1192,-0.12,0,0,0,0,0,0,0,0,0,0,0,0,0,0,0,0,0,0,0,0,0,0,0,0,0,0,0,0,0,0,0,0,0,0,0,0,0,0,0,0,0,0,0,0,0,0,0,0,0,0,0,0,0,0,0,0,0,0,0,0,0,0,0,0,0,0,0,0,0]}]],[[{"header":{"parameterUnit":"kt","parameterCategory":2,"dx":1,"dy":1,"la1":30.253999710083008,"la2":30.299108505249023,"lo1":-89.0895004272461,"lo2":-89.04439544677734,"nx":28,"ny":28,"refTime":"2022-10-19T21:00:00:Z","depth":"4","parameterNumber":2,"parameterNumberName":"U-component_of_CURRENTS"},"data":[0.054,0.057,0.0578,0.0589,0.063,0.0628,0.0658,0.0709,0.0737,0.0863,0.0929,0.103,0.1132,0.1144,0.1249,0.1262,0.1281,0.1359,0.1359,0.1402,0.1404,0.1406,0.1444,0,0,0,0,0,0.0536,0.056,0.0576,0.0656,0.0641,0.0692,0.0725,0.08,0.0919,0.0893,0.106,0.1024,0.1145,0.1163,0.1238,0.1206,0.1318,0.1284,0.1316,0.1403,0.1406,0.1442,0,0,0,0,0,0,0.0507,0.0535,0.0595,0.069,0.0727,0.0742,0.0847,0.0909,0.1015,0.118,0.1073,0.12,0.1282,0.1364,0.127,0.1344,0.1355,0.1361,0.1365,0.1368,0.139,0.1431,0.1308,0,0,0,0,0,0.0496,0.0547,0.0634,0.0711,0.0822,0.0913,0.1062,0.1102,0.1266,0.1385,0.1363,0.1442,0.1407,0.1437,0.1481,0.1369,0.1473,0.1409,0.1411,0.1454,0.1491,0.1442,0.1446,0.1416,0.1416,0.1417,0.1417,0,0.0488,0.0541,0.0731,0.0779,0.0916,0.1132,0.1216,0.1462,0.1474,0.1596,0.1515,0.1622,0.1639,0.1529,0.1515,0.1467,0.143,0.1416,0.1462,0.1496,0.1446,0.1449,0.1452,0.1419,0.1419,0.1419,0.1418,0,0.0466,0.0577,0.0714,0.0935,0.1024,0.1161,0.1415,0.1478,0.1685,0.1701,0.1763,0.1852,0.181,0.1821,0.1692,0.1654,0.152,0.1461,0.1527,0.1472,0.1455,0.1457,0.1422,0.1422,0.1421,0.142,0.142,0,0.0488,0.0614,0.0808,0.088,0.1038,0.1212,0.1385,0.1515,0.1662,0.1675,0.1869,0.1826,0.1907,0.1838,0.176,0.1647,0.1634,0.1557,0.1503,0.154,0.1542,0.1479,0.1474,0.1531,0.1531,0.1532,0.1532,0,0.0464,0.0674,0.0793,0.0863,0.1059,0.1184,0.1321,0.1472,0.1552,0.1726,0.1775,0.1843,0.189,0.1827,0.1756,0.1773,0.1626,0.1599,0.1517,0.1514,0.148,0.1474,0.1533,0.1533,0.1533,0.1533,0.1533,0,0.0509,0.0602,0.0753,0.0939,0.1,0.1117,0.1306,0.1411,0.154,0.1617,0.1713,0.1751,0.1811,0.1788,0.1739,0.1769,0.1712,0.1635,0.1629,0.1571,0.1484,0.1455,0.1527,0.1528,0.1528,0.1529,0.1529,0,0.0457,0.0604,0.0692,0.0859,0.0953,0.1083,0.1177,0.13,0.1403,0.1502,0.1544,0.1635,0.1658,0.1724,0.1711,0.1652,0.164,0.1664,0.1503,0.1498,0.1486,0.1547,0.1597,0.1533,0.1533,0.1532,0.1532,0,0.0411,0.0584,0.0626,0.0719,0.0892,0.0969,0.1085,0.1221,0.1309,0.1409,0.1502,0.1569,0.1615,0.1625,0.1632,0.161,0.1639,0.1591,0.1585,0.1571,0.1563,0.1552,0.1548,0.1597,0.1597,0.1597,0.1535,0,0.0433,0.0543,0.059,0.0748,0.0829,0.0929,0.1049,0.1135,0.1234,0.1301,0.1397,0.1404,0.1466,0.1477,0.1487,0.1536,0.1518,0.1459,0.1413,0.1472,0.1436,0.1434,0.1419,0.1417,0.1415,0.1413,0,0,0.0398,0.0496,0.0583,0.0675,0.0763,0.0872,0.0964,0.1032,0.1149,0.1201,0.123,0.1306,0.131,0.1356,0.1417,0.1387,0.1366,0.1435,0.1446,0.1451,0.1454,0.1424,0.1424,0.1409,0.1409,0.1408,0.1407,0,0.0402,0.0495,0.0557,0.0643,0.0794,0.0857,0.0899,0.1027,0.1098,0.1176,0.1193,0.1235,0.1276,0.1288,0.1295,0.1356,0.1326,0.1386,0.1482,0.143,0.1437,0.1443,0.1415,0.1417,0.1402,0.1402,0.1403,0,0.0404,0.0494,0.0531,0.0667,0.0755,0.0839,0.0887,0.0991,0.1065,0.1052,0.1152,0.1163,0.1156,0.1207,0.1231,0.121,0.127,0.1268,0.1278,0.1291,0.1233,0.1242,0.125,0.1147,0.1146,0.1146,0,0,0.0422,0.0486,0.0614,0.0679,0.0738,0.0846,0.09,0.0972,0.1033,0.1067,0.1102,0.1128,0.1145,0.1168,0.1168,0.1195,0.1148,0.1242,0.1254,0.1264,0.1283,0.1229,0.1237,0.1145,0.1145,0.1145,0,0,0.0421,0.0559,0.0621,0.0697,0.0793,0.0887,0.0941,0.0999,0.1053,0.1082,0.109,0.1096,0.115,0.1127,0.1109,0.1192,0.1135,0.1137,0.1231,0.1245,0.1257,0.1285,0.1106,0,0,0,0,0,0.0506,0.0538,0.0592,0.0623,0.0771,0.0857,0.0876,0.0976,0.1025,0.1059,0.1091,0.1093,0.1129,0.1112,0.1108,0.118,0.1127,0.113,0.1133,0.1257,0.1272,0.1285,0,0,0,0,0,0,0.0518,0.0551,0.0592,0.0686,0.0722,0.0855,0.0902,0.0927,0.1024,0.1039,0.1086,0.1091,0.1089,0.1113,0.111,0.118,0.1107,0.1128,0.1131,0.1133,0.1262,0.1275,0.1286,0,0,0,0,0,0.0528,0.0555,0.0779,0.0685,0.0717,0.0855,0.0903,0.0926,0.1005,0.1027,0.1041,0.1092,0.1086,0.1087,0.1111,0.1183,0.1109,0.1108,0.113,0.1132,0.1134,0.1268,0,0,0,0,0,0,0.0536,0.0549,0.0786,0.0799,0.0712,0.0851,0.0878,0.0923,0.0988,0.1005,0.1026,0.1035,0.1083,0.1085,0.1085,0.1187,0.1111,0.111,0.1109,0.1131,0.1133,0.1134,0,0,0,0,0,0,0.0536,0.0558,0.0792,0.082,0.0836,0.0847,0.0872,0.0849,0.0984,0.0978,0.0992,0.1029,0.1068,0.1082,0.1083,0.1044,0.1112,0.1111,0.111,0.111,0.1133,0.1134,0,0,0,0,0,0,0.0547,0.0566,0.0816,0.0828,0.0842,0.098,0.0824,0.0957,0.1062,0.097,0.1071,0.1075,0.1063,0.1067,0.1081,0.1041,0.1043,0.1112,0.1111,0.1111,0.111,0,0,0,0,0,0,0,0.0555,0.0412,0.0727,0.0835,0.0848,0.0917,0.0919,0.0921,0.1063,0.1066,0.107,0.1073,0.1119,0.1118,0.1116,0.1039,0,0,0.1112,0.1112,0,0,0,0,0,0,0,0,0.0406,0.0411,0.0727,0.0731,0.0734,0.0917,0.0919,0.092,0.1063,0.1066,0.1069,0.1072,0.1118,0.1117,0.1116,0,0,0,0,0,0,0,0,0,0,0,0,0,0,0,0.0728,0.0731,0,0.0917,0.0919,0.092,0.1064,0.1066,0.1068,0.1071,0.1118,0.1117,0.1116,0,0,0,0,0,0,0,0,0,0,0,0,0,0,0,0,0,0,0,0,0,0,0,0,0,0,0,0,0,0,0,0,0,0,0,0,0,0,0,0,0,0,0,0,0,0,0,0,0,0,0,0,0,0,0,0,0,0,0,0,0,0,0,0,0,0,0,0,0]}],[{"header":{"parameterUnit":"kt","parameterCategory":2,"dx":1,"dy":1,"la1":30.253999710083008,"la2":30.299108505249023,"lo1":-89.0895004272461,"lo2":-89.04439544677734,"nx":28,"ny":28,"refTime":"2022-10-19T21:00:00:Z","depth":"4","parameterNumber":3,"parameterNumberName":"V-component_of_CURRENTS"},"data":[0.0352,0.0372,0.0379,0.0431,0.0476,0.0435,0.0377,0.0292,0.026,0.0184,0.0074,-0.0034,-0.0245,-0.0159,-0.0453,-0.0509,-0.0648,-0.0902,-0.0903,-0.1162,-0.1174,-0.1184,-0.1178,0,0,0,0,0,0.0328,0.0372,0.0341,0.033,0.0301,0.0298,0.0182,0.0106,0.0041,0.0052,-0.0001,-0.0111,-0.0302,-0.0429,-0.0519,-0.0669,-0.0915,-0.0782,-0.0996,-0.1169,-0.1182,-0.1172,0,0,0,0,0,0,0.0302,0.0286,0.0277,0.0257,0.0222,0.0192,0.0108,0.0083,0.0032,-0.0068,-0.0072,-0.0244,-0.0378,-0.0568,-0.0676,-0.0791,-0.0871,-0.0926,-0.0951,-0.0966,-0.0919,-0.0757,-0.065,0,0,0,0,0,0.029,0.0306,0.023,0.0207,0.0171,0.0085,0.0026,0.0026,-0.0097,-0.0177,-0.0223,-0.0347,-0.0472,-0.0691,-0.0782,-0.0928,-0.12,-0.1164,-0.1174,-0.1294,-0.1198,-0.1155,-0.1151,-0.1231,-0.1232,-0.1233,-0.1234,0,0.0383,0.0317,0.0213,0.0184,0.0128,0.0027,-0.0024,-0.0152,-0.0202,-0.033,-0.0355,-0.0477,-0.0619,-0.0757,-0.0983,-0.1151,-0.1176,-0.1195,-0.1322,-0.1218,-0.1174,-0.1165,-0.1156,-0.1244,-0.1243,-0.1243,-0.1242,0,0.0438,0.0384,0.024,0.0089,0.0059,-0.0031,-0.0144,-0.0224,-0.0337,-0.0431,-0.0463,-0.0663,-0.0786,-0.096,-0.1149,-0.1222,-0.1322,-0.1305,-0.1295,-0.1252,-0.1182,-0.1169,-0.1261,-0.1257,-0.1254,-0.1251,-0.1249,0,0.0502,0.0397,0.0319,0.0223,0.0086,-0.0056,-0.02,-0.0333,-0.0467,-0.055,-0.0733,-0.0802,-0.1043,-0.1133,-0.1237,-0.1292,-0.1371,-0.1355,-0.1319,-0.1397,-0.1383,-0.1414,-0.14,-0.1539,-0.154,-0.154,-0.154,0,0.0616,0.0437,0.0317,0.0239,0.0018,-0.0068,-0.0176,-0.0382,-0.0475,-0.0677,-0.0706,-0.0966,-0.102,-0.1167,-0.1237,-0.125,-0.1378,-0.1398,-0.1312,-0.1297,-0.1411,-0.1396,-0.1541,-0.1541,-0.1541,-0.1541,-0.1541,0,0.0645,0.0547,0.0396,0.0175,0.0119,0.0025,-0.0219,-0.0351,-0.0564,-0.0635,-0.0798,-0.0882,-0.1087,-0.1058,-0.127,-0.1216,-0.1244,-0.1279,-0.1277,-0.1195,-0.1087,-0.1042,-0.1169,-0.1167,-0.1165,-0.1163,-0.1161,0,0.0722,0.0582,0.0503,0.0315,0.0193,0.0071,-0.0078,-0.024,-0.0354,-0.0503,-0.0666,-0.0818,-0.087,-0.092,-0.1039,-0.1133,-0.1194,-0.1144,-0.1176,-0.1176,-0.1027,-0.1129,-0.1175,-0.1134,-0.1138,-0.114,-0.1142,0,0.0775,0.0618,0.06,0.0499,0.0332,0.0242,0.0081,-0.0111,-0.0218,-0.0337,-0.05,-0.0755,-0.0777,-0.0896,-0.0981,-0.1064,-0.114,-0.1026,-0.103,-0.0964,-0.1227,-0.1104,-0.1107,-0.1151,-0.1156,-0.116,-0.1123,0,0.0728,0.0651,0.0616,0.0482,0.0394,0.0304,0.0163,0.0077,0.0005,-0.0098,-0.0309,-0.0443,-0.0637,-0.0696,-0.0765,-0.0965,-0.0898,-0.091,-0.0865,-0.0965,-0.0927,-0.0942,-0.0762,-0.0761,-0.0761,-0.0761,0,0,0.0779,0.0694,0.0649,0.0569,0.0475,0.0406,0.0309,0.0214,0.0065,-0.0022,0.0008,-0.0317,-0.0421,-0.068,-0.0737,-0.0766,-0.0757,-0.0755,-0.0914,-0.093,-0.0946,-0.0916,-0.093,-0.076,-0.076,-0.076,-0.076,0,0.0748,0.071,0.0678,0.0594,0.0484,0.0398,0.0382,0.0255,0.0182,0.0051,-0.0052,-0.0183,-0.0354,-0.0508,-0.0607,-0.074,-0.0728,-0.0764,-0.0825,-0.0907,-0.0924,-0.0939,-0.0912,-0.0925,-0.076,-0.076,-0.076,0,0.0744,0.0678,0.0664,0.0553,0.0473,0.0376,0.0351,0.0276,0.0174,0.0118,-0.0028,-0.0118,-0.0275,-0.0427,-0.0495,-0.0471,-0.0676,-0.063,-0.0635,-0.0677,-0.0761,-0.0781,-0.0799,-0.0567,-0.0566,-0.0565,0,0,0.0722,0.0694,0.0575,0.0536,0.0494,0.0381,0.0329,0.0276,0.0169,0.0129,0.0034,-0.0086,-0.0234,-0.0293,-0.0414,-0.0526,-0.0547,-0.0602,-0.0611,-0.0618,-0.0663,-0.075,-0.077,-0.0561,-0.0561,-0.0561,0,0,0.0702,0.0597,0.0568,0.0521,0.0428,0.0292,0.0255,0.0206,0.0109,0.0107,0.0001,-0.0029,-0.0172,-0.0223,-0.0158,-0.041,-0.038,-0.0394,-0.0361,-0.0373,-0.0382,-0.0408,-0.019,0,0,0,0,0,0.0625,0.0612,0.0588,0.0565,0.042,0.0309,0.0285,0.02,0.0188,0.0164,0.0064,0.0039,-0.023,-0.0174,-0.02,-0.0276,-0.0508,-0.0517,-0.0526,-0.0513,-0.0526,-0.0536,0,0,0,0,0,0,0.0615,0.0591,0.0586,0.0458,0.0422,0.031,0.0272,0.0248,0.0189,0.0182,0.0056,0.0035,-0.0037,-0.0164,-0.0187,-0.0258,-0.0183,-0.0511,-0.052,-0.0527,-0.0517,-0.0528,-0.0536,0,0,0,0,0,0.0607,0.0587,0.0387,0.0455,0.0425,0.0302,0.0274,0.0253,0.0209,0.0082,0.006,0.0149,-0.0035,-0.0061,-0.0178,-0.0247,-0.0167,-0.0175,-0.0517,-0.0523,-0.0529,-0.0522,0,0,0,0,0,0,0.0601,0.0562,0.0378,0.0363,0.0465,0.0306,0.0283,0.0258,0.0112,0.0089,0.0171,0.0167,-0.0035,-0.0055,-0.0074,-0.0241,-0.0154,-0.0163,-0.0168,-0.0522,-0.0526,-0.0531,0,0,0,0,0,0,0.0571,0.0551,0.0371,0.0388,0.0375,0.031,0.029,0.0201,0.0111,0.0209,0.0201,0.0171,-0.0006,-0.005,-0.0066,-0.0203,-0.0144,-0.0152,-0.0158,-0.0162,-0.0526,-0.0529,0,0,0,0,0,0,0.056,0.0543,0.0392,0.0382,0.037,0.0203,0.0228,0.0087,0.0123,0.0217,0.0123,0.0124,-0.0001,-0.0018,-0.006,-0.019,-0.0199,-0.0144,-0.015,-0.0154,-0.0157,0,0,0,0,0,0,0,0.0551,0.0702,0.0461,0.0376,0.0366,0.0228,0.0225,0.0221,0.0123,0.0123,0.0123,0.0124,-0.0097,-0.0106,-0.0115,-0.0179,0,0,-0.0144,-0.0148,0,0,0,0,0,0,0,0,0.0706,0.0703,0.0461,0.0458,0.0455,0.0228,0.0225,0.0222,0.0123,0.0123,0.0123,0.0124,-0.01,-0.0107,-0.0114,0,0,0,0,0,0,0,0,0,0,0,0,0,0,0,0.046,0.0458,0,0.0227,0.0225,0.0222,0.0123,0.0123,0.0123,0.0123,-0.0102,-0.0108,-0.0114,0,0,0,0,0,0,0,0,0,0,0,0,0,0,0,0,0,0,0,0,0,0,0,0,0,0,0,0,0,0,0,0,0,0,0,0,0,0,0,0,0,0,0,0,0,0,0,0,0,0,0,0,0,0,0,0,0,0,0,0,0,0,0,0,0,0,0,0,0]}]]]